Location: Newark
(11.6000°N, 43.1667°E)
Time: 16:00:31
(UTC+00:00)

Envisat - Pass Details

Date: 28 September 2019
Orbit: 764 x 766 km, 98.1° (Epoch: 22 October)

Event Time Altitude Azimuth Distance (km) Brightness Sun altitude
Rises 15:55:46 0° 179° (S) 3,220 6.2 -14.6°
Reaches altitude 10° 15:58:08 10° 184° (S) 2,294 5.5 -15.1°
Maximum altitude 16:03:00 49° 259° (W) 976 4.0 -16.3°
Drops below altitude 10° 16:07:53 10° 334° (NNW) 2,293 5.8 -17.5°
Sets 16:10:15 0° 339° (NNW) 3,219 6.5 -18.1°
